Location: Jackson Park
(37.2862°N, 79.9123°W)
Time: 11:05:16
(UTC+00:00)

Transit 2A - All Passes

Search period start: 15 May 2026 00:00
Search period end: 25 May 2026 00:00
Orbit: 594 x 950 km, 66.7° (Epoch: 14 May)

Date Brightness Start Highest point End Pass type
(mag) Time Alt. Az. Time Alt. Az. Time Alt. Az.
15 May - 05:44:26 10° NNW 05:49:06 44° ENE 05:53:21 10° SE visible
15 May - 07:28:42 10° WNW 07:31:34 16° WSW 07:34:19 10° SW visible
15 May - 20:18:41 10° SSW 20:24:51 64° ESE 20:30:42 10° NE daylight
15 May - 22:03:38 10° W 22:08:18 22° NW 22:12:46 10° N daylight
16 May - 05:08:20 10° N 05:12:30 28° NE 05:16:23 10° ESE visible
16 May - 06:51:26 10° NW 06:55:23 27° WSW 06:59:07 10° SSW visible
16 May - 19:42:41 10° S 19:48:30 42° ESE 19:54:03 10° NE daylight
16 May - 21:26:14 10° WSW 21:31:39 31° NW 21:36:48 10° N daylight
17 May - 04:32:26 10° N 04:35:50 19° NE 04:39:03 10° E visible
17 May - 06:14:36 10° NW 06:19:09 46° WSW 06:23:21 10° S visible
17 May - 19:07:03 10° SSE 19:12:13 28° ESE 19:17:11 10° NE daylight
17 May - 20:49:10 10° SW 20:55:05 45° WNW 21:00:40 10° NNE daylight
18 May - 03:57:01 10° NNE 03:59:04 12° NE 04:01:03 10° ENE visible
18 May - 05:38:02 10° NNW 05:42:49 80° WSW 05:47:13 10° SSE visible
18 May - 18:31:56 10° SSE 18:35:59 18° ESE 18:39:55 10° ENE daylight
18 May - 20:12:24 10° SW 20:18:35 67° WNW 20:24:24 10° NNE daylight
18 May - 22:00:17 10° WNW 22:02:36 12° NW 22:04:50 10° NNW daylight
19 May - 05:01:38 10° NNW 05:06:23 61° ENE 05:10:45 10° SE visible
19 May - 06:47:25 10° W 06:48:36 11° WSW 06:49:48 10° WSW visible
19 May - 17:58:08 10° ESE 17:59:49 11° ESE 18:01:29 10° E daylight
19 May - 19:35:55 10° SSW 19:42:09 84° ESE 19:48:01 10° NNE daylight
19 May - 21:21:53 10° W 21:25:48 17° NW 21:29:34 10° N daylight
20 May - 04:25:24 10° NNW 04:29:52 37° NE 04:34:00 10° SE visible
20 May - 06:09:13 10° WNW 06:12:29 19° WSW 06:15:36 10° SSW visible
20 May - 18:59:42 10° S 19:05:46 56° ESE 19:11:29 10° NE daylight
20 May - 20:44:11 10° WSW 20:49:06 25° NW 20:53:46 10° N daylight
21 May - 03:49:21 10° N 03:53:16 24° NE 03:56:55 10° ESE visible
21 May - 05:32:08 10° NW 05:36:17 32° WSW 05:40:10 10° S visible
21 May - 18:23:49 10° S 18:29:26 37° ESE 18:34:47 10° NE daylight
21 May - 20:06:55 10° WSW 20:12:29 35° NW 20:17:44 10° N daylight
22 May - 03:13:35 10° N 03:16:33 16° NE 03:19:23 10° E visible
22 May - 04:55:24 10° NW 05:00:00 55° WSW 05:04:16 10° S visible
22 May - 17:48:19 10° SSE 17:53:09 24° ESE 17:57:48 10° NE daylight
22 May - 19:29:57 10° SW 19:35:56 51° WNW 19:41:34 10° NNE daylight
23 May - 02:38:42 10° NNE 02:39:46 11° NE 02:40:48 10° NE visible
23 May - 04:18:53 10° NNW 04:23:39 86° ENE 04:28:01 10° SSE visible
23 May - 17:13:28 10° SE 17:16:57 16° ESE 17:20:19 10° ENE daylight
23 May - 18:53:15 10° SSW 18:59:27 76° WNW 19:05:16 10° NNE daylight
23 May - 20:40:28 10° WNW 20:43:20 14° NW 20:46:06 10° NNW daylight
24 May - 03:42:33 10° NNW 03:47:11 51° ENE 03:51:28 10° SE visible
24 May - 05:27:25 10° WNW 05:29:32 13° WSW 05:31:36 10° SW visible
24 May - 18:16:51 10° SSW 18:23:02 74° ESE 18:28:50 10° NNE daylight
24 May - 20:02:20 10° W 20:06:34 19° NW 20:10:36 10° N daylight
